GW3775 Weather Reports


time (UTC)temp
C
wind
direction
speed
KPH
gust
KPH
rain 1hr
cm
rain 24hr
cm
rain mn
cm
humidity
%
barometer
mb
20260502224552 13 140 1.6 8.0 0.00 0.00 0.00 92 1019.8
20260502224048 13 309 1.6 11.3 0.00 0.00 0.00 92 1019.6
20260502223552 13 34 3.2 11.3 0.00 0.00 0.00 92 1019.4
20260502223050 13 12 1.6 12.9 0.00 0.00 0.00 92 1019.6
20260502222548 13 278 3.2 12.9 0.00 0.00 0.00 91 1019.6
20260502222053 13 50 3.2 9.7 0.00 0.00 0.00 91 1019.6
20260502221554 13 60 1.6 9.7 0.00 0.00 0.00 91 1019.7
20260502221050 14 51 1.6 9.7 0.00 0.00 0.00 91 1019.7
20260502220549 14 10 1.6 11.3 0.00 0.00 0.00 91 1020.0
20260502220053 14 30 4.8 11.3 0.00 0.00 0.00 91 1019.9
20260502215548 14 302 6.4 16.1 0.00 0.00 0.00 91 1019.9
20260502215049 14 337 4.8 16.1 0.00 0.00 0.00 91 1020.1
20260502214557 14 292 6.4 16.1 0.00 0.00 0.00 91 1020.0
20260502214049 14 339 6.4 12.9 0.00 0.00 0.00 91 1019.9
20260502213552 14 291 6.4 11.3 0.00 0.00 0.00 90 1020.0
20260502213054 14 297 3.2 9.7 0.00 0.00 0.00 90 1019.7
20260502212549 14 144 3.2 9.7 0.00 0.00 0.00 90 1019.8
20260502212051 14 311 1.6 9.7 0.00 0.00 0.00 90 1019.9
20260502211553 14 7 4.8 9.7 0.00 0.00 0.00 90 1019.9
20260502211050 15 28 1.6 6.4 0.00 0.00 0.00 90 1019.9
20260502210549 15 232 1.6 6.4 0.00 0.00 0.00 90 1019.8
20260502210107 15 164 1.6 6.4 0.00 0.00 0.00 90 1019.8
20260502205549 15 301 1.6 9.7 0.00 0.00 0.00 90 1019.8
20260502205052 15 289 3.2 9.7 0.00 0.00 0.00 90 1019.7
20260502204557 15 294 3.2 12.9 0.00 0.00 0.00 90 1019.7
20260502204050 15 360 4.8 12.9 0.00 0.00 0.00 90 1019.7
20260502203549 15 285 4.8 12.9 0.00 0.00 0.00 90 1019.8
20260502203058 15 323 3.2 9.7 0.00 0.00 0.00 91 1019.8
20260502202549 15 305 4.8 14.5 0.00 0.00 0.00 91 1019.8
20260502202052 15 304 8.0 14.5 0.00 0.00 0.00 90 1019.6
20260502201553 15 303 4.8 14.5 0.00 0.00 0.00 91 1019.5
20260502201049 15 30 6.4 14.5 0.00 0.00 0.00 91 1019.6
20260502200549 15 307 6.4 14.5 0.00 0.00 0.00 91 1019.4
20260502200055 15 320 8.0 14.5 0.00 0.00 0.00 90 1019.5
20260502195548 15 296 6.4 16.1 0.00 0.00 0.00 90 1019.6
20260502195050 15 324 8.0 16.1 0.00 0.00 0.00 90 1019.2
20260502194602 15 308 6.4 11.3 0.00 0.00 0.00 90 1019.2
20260502194048 15 173 1.6 9.7 0.00 0.00 0.00 90 1019.3
20260502193549 15 297 3.2 12.9 0.00 0.00 0.00 90 1019.2
20260502193055 15 297 3.2 12.9 0.00 0.00 0.00 89 1019.1
20260502192553 15 17 3.2 9.7 0.00 0.00 0.00 89 1018.9
20260502192048 15 55 4.8 9.7 0.00 0.00 0.00 89 1019.2
20260502191606 15 218 1.6 6.4 0.00 0.00 0.00 89 1019.1
20260502191048 15 273 1.6 12.9 0.00 0.00 0.00 89 1019.3
20260502190548 15 5 3.2 12.9 0.00 0.00 0.00 88 1019.4
20260502190057 15 284 4.8 12.9 0.00 0.00 0.00 88 1019.3
20260502185549 15 12 1.6 6.4 0.00 0.00 0.00 87 1019.1
20260502185049 15 18 3.2 4.8 0.00 0.00 0.00 86 1019.2
20260502184600 15 0 3.2 8.0 0.00 0.00 0.00 86 1019.1
20260502184049 16 0 3.2 9.7 0.00 0.00 0.00 86 1018.9
20260502183549 16 353 4.8 9.7 0.00 0.00 0.00 85 1019.0
20260502183055 16 360 4.8 9.7 0.00 0.00 0.00 85 1019.3
20260502182549 16 180 1.6 6.4 0.00 0.00 0.00 84 1018.9
20260502182050 16 35 1.6 8.0 0.00 0.00 0.00 84 1019.2
20260502181554 16 182 1.6 8.0 0.00 0.00 0.00 84 1019.1
20260502181238 16 308 1.6 8.0 0.00 0.00 0.00 83 1019.1
20260502180549 16 38 1.6 8.0 0.00 0.00 0.00 83 1019.1
20260502164051 17 158 0.0 6.4 0.00 0.00 0.00 79 1019.6
20260502163549 17 58 1.6 6.4 0.00 0.00 0.00 78 1019.7
20260502163103 17 0 1.6 8.0 0.00 0.00 0.00 79 1019.6
20260502162553 17 0 1.6 9.7 0.00 0.00 0.00 81 1019.5
20260502162050 17 307 6.4 9.7 0.00 0.00 0.00 81 1019.8
20260502162007 17 0 3.2 9.7 0.00 0.00 0.00 82 1019.8
20260502160550 17 307 6.4 11.3 0.00 0.00 0.00 82 1019.7
20260502152051 18 349 0.0 9.7 0.00 0.00 0.00 77 1020.3
20260502151621 18 45 6.4 9.7 0.00 0.00 0.00 74 1020.4
20260502151049 18 95 1.6 8.0 0.00 0.00 0.00 75 1020.1
20260502150548 18 51 3.2 9.7 0.00 0.00 0.00 75 1020.5
20260502130548 18 98 0.0 6.4 0.00 0.00 0.00 75 1021.9
20260502123550 18 165 1.6 8.0 0.00 0.00 0.00 75 1022.0
20260502123059 18 240 3.2 12.9 0.00 0.00 0.00 75 1021.7
20260502122549 18 80 1.6 12.9 0.00 0.00 0.00 76 1021.8
20260502122048 18 34 3.2 12.9 0.00 0.00 0.00 75 1021.9
20260502121553 18 40 3.2 9.7 0.00 0.00 0.00 75 1022.0
20260502121047 18 292 1.6 9.7 0.00 0.00 0.00 75 1021.9
20260502120549 17 303 4.8 9.7 0.00 0.00 0.00 76 1022.1
20260502115551 18 318 3.2 6.4 0.00 0.00 0.00 72 1022.4
20260502115048 18 69 1.6 11.3 0.00 0.00 0.00 73 1022.4
20260502114556 18 329 0.0 11.3 0.00 0.00 0.00 73 1022.3
20260502114049 18 41 4.8 11.3 0.00 0.00 0.00 73 1022.2
20260502113549 18 301 1.6 9.7 0.00 0.00 0.00 73 1022.2
20260502113054 18 72 1.6 9.7 0.00 0.00 0.00 74 1022.2
20260502112552 18 306 3.2 8.0 0.00 0.00 0.00 74 1022.3
20260502112048 18 71 1.6 6.4 0.00 0.00 0.00 74 1022.3
20260502111559 18 14 1.6 8.0 0.00 0.00 0.00 76 1022.4
20260502111049 17 48 4.8 8.0 0.00 0.00 0.00 75 1022.5
20260502110548 18 275 1.6 6.4 0.00 0.00 0.00 75 1022.6
20260502110055 18 43 1.6 6.4 0.00 0.00 0.00 76 1022.7
20260502105549 17 28 1.6 8.0 0.00 0.00 0.00 76 1022.9
20260502105201 17 14 1.6 8.0 0.00 0.00 0.00 77 1022.8
20260502104551 17 7 3.2 8.0 0.00 0.00 0.00 77 1022.9
20260502104049 17 76 3.2 8.0 0.00 0.00 0.00 78 1022.8
20260502103549 17 350 1.6 11.3 0.00 0.00 0.00 79 1022.9
20260502103102 17 89 3.2 11.3 0.00 0.00 0.00 77 1023.1
20260502102549 17 24 1.6 9.7 0.00 0.00 0.00 77 1023.0
20260502102049 17 27 3.2 9.7 0.00 0.00 0.00 77 1023.0
20260502101600 17 23 3.2 8.0 0.00 0.00 0.00 77 1022.9
20260502101048 17 293 1.6 6.4 0.00 0.00 0.00 78 1022.9
20260502100549 17 0 3.2 6.4 0.00 0.00 0.00 79 1022.9
20260502100123 17 55 1.6 6.4 0.00 0.00 0.00 79 1023.1
20260502091051 16 70 3.2 9.7 0.00 0.05 0.00 80 1023.2
20260502090551 16 15 4.8 9.7 0.00 0.05 0.00 79 1023.2
20260502090110 16 355 3.2 6.4 0.00 0.05 0.00 79 1023.2
20260502071050 13 306 4.8 11.3 0.00 0.10 0.00 86 1023.5
20260502070552 13 302 4.8 11.3 0.00 0.10 0.00 87 1023.4
20260502070100 13 202 0.0 8.0 0.00 0.10 0.00 88 1023.6
20260502065552 13 251 1.6 8.0 0.00 0.10 0.00 88 1023.6
20260502065049 13 56 3.2 8.0 0.00 0.10 0.00 87 1023.7
20260502064606 13 305 1.6 6.4 0.00 0.10 0.00 88 1023.7
20260502064048 13 0 0.0 8.0 0.00 0.10 0.00 88 1023.8
20260502063548 13 10 3.2 8.0 0.00 0.10 0.00 88 1023.8
20260502063106 13 42 1.6 11.3 0.00 0.10 0.00 89 1023.7
20260502062550 13 169 3.2 11.3 0.00 0.10 0.00 89 1023.6
20260502062049 13 248 1.6 4.8 0.00 0.10 0.00 89 1023.5
20260502061612 13 133 1.6 8.0 0.00 0.10 0.00 89 1023.6
20260502061050 13 100 3.2 9.7 0.00 0.10 0.00 89 1023.2
20260502060552 13 69 1.6 9.7 0.00 0.10 0.00 89 1023.4
20260502060053 13 164 3.2 11.3 0.00 0.10 0.00 89 1023.3
20260502055550 13 292 3.2 12.9 0.00 0.10 0.00 90 1023.2
20260502055051 13 38 6.4 12.9 0.00 0.10 0.00 90 1023.2
20260502054555 13 353 6.4 12.9 0.00 0.10 0.00 90 1023.0
20260502054051 13 356 6.4 12.9 0.00 0.10 0.00 90 1023.0
20260502053548 13 23 4.8 9.7 0.00 0.10 0.00 90 1023.0
20260502053102 13 27 4.8 9.7 0.00 0.10 0.00 89 1022.9
20260502052551 13 31 3.2 9.7 0.00 0.10 0.00 89 1022.9
20260502052048 13 15 4.8 9.7 0.00 0.10 0.00 89 1023.0
20260502051550 13 10 6.4 9.7 0.00 0.10 0.00 89 1022.7
20260502051052 13 356 3.2 8.0 0.00 0.10 0.00 89 1022.8
20260502050552 13 0 3.2 6.4 0.00 0.10 0.00 88 1022.8
20260502050057 13 8 1.6 8.0 0.00 0.10 0.00 88 1023.0
20260502045551 13 50 3.2 8.0 0.00 0.18 0.00 87 1023.0
20260502045052 13 8 3.2 8.0 0.00 0.18 0.00 87 1022.9
20260502044556 13 34 3.2 8.0 0.00 0.18 0.00 86 1022.9
20260502044051 13 58 3.2 8.0 0.00 0.18 0.00 86 1022.7
20260502043551 13 9 1.6 9.7 0.00 0.18 0.00 86 1022.7
20260502043100 13 111 1.6 9.7 0.00 0.18 0.00 86 1022.6
20260502042548 13 341 1.6 9.7 0.00 0.18 0.00 86 1022.5
20260502042048 13 145 3.2 9.7 0.00 0.18 0.00 86 1022.5
20260502041559 13 27 3.2 8.0 0.00 0.18 0.00 86 1022.6
20260502041154 13 97 1.6 8.0 0.00 0.18 0.00 86 1022.7
20260502040057 13 43 3.2 12.9 0.00 0.18 0.00 85 1022.9
20260502035549 13 289 4.8 12.9 0.00 0.33 0.00 85 1022.7
20260502035049 13 306 3.2 11.3 0.00 0.33 0.00 86 1022.9
20260502034553 13 17 1.6 9.7 0.00 0.33 0.00 86 1023.0
20260502034049 13 83 3.2 9.7 0.00 0.33 0.00 86 1023.2
20260502033549 13 48 4.8 11.3 0.00 0.33 0.00 86 1023.0
20260502033054 13 357 4.8 12.9 0.00 0.33 0.00 86 1023.0
20260502032548 13 277 8.0 12.9 0.00 0.33 0.00 87 1023.2
20260502032048 13 292 6.4 12.9 0.00 0.33 0.00 87 1023.2
20260502031558 13 296 3.2 11.3 0.00 0.33 0.00 87 1023.2
20260502031049 13 290 4.8 11.3 0.00 0.33 0.00 88 1023.2
20260502030549 13 306 3.2 9.7 0.00 0.33 0.00 88 1023.3
20260502030059 13 339 4.8 9.7 0.00 0.33 0.00 89 1023.3
20260502025549 13 296 1.6 6.4 0.00 0.56 0.00 89 1023.5
20260502025048 13 330 1.6 8.0 0.00 0.56 0.00 89 1023.3
20260502024603 13 315 3.2 8.0 0.00 0.56 0.00 89 1023.5
20260502024052 13 25 1.6 8.0 0.00 0.56 0.00 89 1023.3
20260502023551 13 1 1.6 6.4 0.00 0.56 0.00 89 1023.4
20260502023053 13 0 3.2 9.7 0.00 0.56 0.00 89 1023.3
20260502022548 13 299 3.2 9.7 0.00 0.56 0.00 89 1023.2
20260502022051 13 315 3.2 11.3 0.00 0.56 0.00 90 1023.3
20260502021557 13 297 4.8 11.3 0.00 0.56 0.00 90 1023.2
20260502021051 13 298 4.8 11.3 0.00 0.56 0.00 90 1023.2
20260502020548 13 311 6.4 11.3 0.00 0.56 0.00 91 1023.5
20260502020053 13 327 4.8 9.7 0.00 0.56 0.00 91 1023.2
20260502015552 13 307 4.8 9.7 0.00 1.27 0.00 91 1023.5
20260502015049 13 301 4.8 9.7 0.00 1.27 0.00 91 1023.5
20260502014555 13 224 0.0 3.2 0.00 1.27 0.00 91 1023.5
20260502014052 13 0 0.0 8.0 0.00 1.27 0.00 91 1023.5
20260502013555 13 141 1.6 8.0 0.00 1.27 0.00 91 1023.6
20260502013053 13 35 1.6 6.4 0.00 1.27 0.00 91 1023.4
20260502012554 13 40 1.6 6.4 0.00 1.27 0.00 91 1023.5
20260502012049 13 37 1.6 4.8 0.00 1.27 0.00 91 1023.5
20260502011553 13 160 1.6 4.8 0.00 1.27 0.00 91 1023.7
20260502011048 13 98 0.0 6.4 0.00 1.27 0.00 91 1023.8
20260502010549 13 133 1.6 6.4 0.00 1.27 0.00 91 1023.9
20260502010108 13 303 3.2 6.4 0.00 1.27 0.00 91 1023.8
20260502005551 13 307 3.2 6.4 0.00 1.27 0.00 91 1024.1
20260502005049 13 294 3.2 8.0 0.00 1.27 0.00 91 1024.1
20260502004559 13 340 3.2 9.7 0.00 1.27 0.00 91 1024.2
20260502004049 13 284 4.8 11.3 0.00 1.27 0.00 90 1024.1
20260502003548 13 296 3.2 11.3 0.00 1.27 0.00 90 1024.2
20260502003053 13 298 3.2 11.3 0.00 1.27 0.00 90 1024.3
20260502002551 13 331 0.0 6.4 0.00 1.27 0.00 90 1024.4
20260502002051 13 34 0.0 6.4 0.00 1.27 0.00 90 1024.4
20260502001555 13 356 1.6 6.4 0.00 1.27 0.00 90 1024.5
20260502001051 13 44 1.6 6.4 0.00 1.27 0.00 90 1024.5
20260502000548 13 60 1.6 4.8 0.00 1.27 0.00 91 1024.6
20260502000056 13 97 0.0 4.8 0.00 1.27 0.00 91 1024.6
20260501235552 13 101 0.0 8.0 0.00 1.57 0.00 91 1024.6
20260501235048 13 80 1.6 8.0 0.00 1.57 0.00 91 1024.4
20260501234553 13 34 4.8 8.0 0.00 1.57 0.00 91 1024.7
20260501234049 13 17 3.2 8.0 0.00 1.57 0.00 91 1024.6
20260501233548 13 2 4.8 9.7 0.00 1.57 0.00 91 1024.7
20260501233057 13 28 3.2 9.7 0.00 1.57 0.00 91 1024.7
20260501232548 13 45 3.2 9.7 0.00 1.57 0.00 91 1024.7
20260501232048 13 0 4.8 9.7 0.00 1.57 0.00 91 1024.9
20260501231607 13 143 3.2 12.9 0.00 1.57 0.00 91 1024.9
20260501231048 13 80 3.2 12.9 0.00 1.57 0.00 91 1025.0
20260501230548 13 339 1.6 8.0 0.00 1.57 0.00 92 1024.9
20260501225554 13 34 4.8 9.7 0.00 2.13 0.00 92 1024.7
20260501225048 13 156 3.2 9.7 0.00 2.13 0.00 92 1024.8